TimeGST,TemperatureF,Dew PointF,Humidity,Sea Level PressureIn,VisibilityMPH,Wind Direction,Wind SpeedMPH,Gust SpeedMPH,PrecipitationIn,Events,Conditions,WindDirDegrees,DateUTC
12:00 AM,91.4,80.6,71,29.42,6.2,WSW,5.8,-,N/A,,Partly Cloudy,240,2013-07-31 20:00:00
1:00 AM,91,80,64,29.42,6,SW,5.8,,,,,220,2013-07-31 21:00:00
1:00 AM,91.4,80.6,71,29.42,-9999.0,SW,5.8,-,N/A,,Clear,220,2013-07-31 21:00:00
2:00 AM,89.6,80.6,75,29.39,-9999.0,South,5.8,-,N/A,,Clear,180,2013-07-31 22:00:00
3:00 AM,89.6,78.8,70,29.39,-9999.0,South,5.8,-,N/A,,Clear,180,2013-07-31 23:00:00
4:00 AM,90,79,63,29.40,6,South,6.9,,,,,180,2013-08-01 00:00:00
4:00 AM,89.6,78.8,70,29.39,-9999.0,South,6.9,-,N/A,,Clear,180,2013-08-01 00:00:00
5:00 AM,89.6,78.8,70,29.39,5.0,South,5.8,-,N/A,,Unknown,180,2013-08-01 01:00:00
6:00 AM,87.8,77.0,70,29.39,4.3,SSW,6.9,-,N/A,,Unknown,200,2013-08-01 02:00:00
7:00 AM,88,78,64,29.42,3,South,6.9,,,,Widespread Dust,190,2013-08-01 03:00:00
7:00 AM,87.8,77.0,70,29.42,3.1,South,6.9,-,N/A,,Unknown,190,2013-08-01 03:00:00
8:00 AM,89.6,77.0,66,29.42,3.7,SSW,5.8,-,N/A,,Unknown,200,2013-08-01 04:00:00
9:00 AM,93.2,77.0,59,29.44,3.7,South,6.9,-,N/A,,Unknown,190,2013-08-01 05:00:00
10:00 AM,95,76,45,29.45,4,SW,5.8,,,,Widespread Dust,220,2013-08-01 06:00:00
10:00 AM,96.8,69.8,41,29.42,-9999.0,SW,10.4,-,N/A,,Clear,220,2013-08-01 06:00:00
11:00 AM,96.8,75.2,50,29.44,3.7,West,9.2,-,N/A,,Unknown,270,2013-08-01 07:00:00
12:00 PM,96.8,75.2,50,29.42,3.7,West,10.4,-,N/A,,Unknown,280,2013-08-01 08:00:00
1:00 PM,99,65,23,29.42,5,West,11.5,,,,Widespread Dust,270,2013-08-01 09:00:00
1:00 PM,98.6,64.4,32,29.42,5.0,West,11.5,-,N/A,,Unknown,270,2013-08-01 09:00:00
2:00 PM,98.6,64.4,32,29.39,5.6,West,10.4,-,N/A,,Unknown,260,2013-08-01 10:00:00
3:00 PM,100.4,59.0,25,29.39,5.0,West,12.7,-,N/A,,Unknown,270,2013-08-01 11:00:00
4:00 PM,98.6,73.4,44,29.36,4.3,West,15.0,-,N/A,,Unknown,270,2013-08-01 12:00:00
5:00 PM,96.8,68.0,39,29.36,4.3,West,11.5,-,N/A,,Unknown,280,2013-08-01 13:00:00
6:00 PM,95.0,77.0,56,29.36,5.0,West,10.4,-,N/A,,Unknown,270,2013-08-01 14:00:00
7:00 PM,94,78,52,29.38,4,West,10.4,,,,Widespread Dust,270,2013-08-01 15:00:00
7:00 PM,93.2,78.8,63,29.36,4.3,West,10.4,-,N/A,,Unknown,270,2013-08-01 15:00:00
8:00 PM,93.2,77.0,59,29.39,-9999.0,West,9.2,-,N/A,,Clear,270,2013-08-01 16:00:00
9:00 PM,91.4,78.8,66,29.39,-9999.0,West,8.1,-,N/A,,Clear,260,2013-08-01 17:00:00
10:00 PM,91.4,80.6,71,29.42,-9999.0,WSW,6.9,-,N/A,,Clear,240,2013-08-01 18:00:00
11:00 PM,91.4,80.6,71,29.42,-9999.0,SSW,5.8,-,N/A,,Clear,210,2013-08-01 19:00:00